Location: La Silve
(44.2414°N, 5.8889°E)
Time: 18:37:03
(UTC+00:00)

Tiangong - Pass Details

Date: 28 June 2021
Orbit: 373 x 386 km, 41.5° (Epoch: 01 August)

Event Time Altitude Azimuth Distance (km) Brightness Sun altitude
Exits shadow 02:41:04 12° 261° (W) 1,270 3.2 -10.8°
Maximum altitude 02:43:43 40° 191° (SSW) 576 1.5 -10.5°
Drops below altitude 10° 02:46:44 10° 120° (ESE) 1,407 4.1 -10.1°
Sets 02:48:49 0° 113° (ESE) 2,244 5.2 -9.8°
